FLOCK 3P-62 (42036 NORAD) Tracking and Keplerian Element Data

This shows tracking and keplerian element data for the satellite.

Feedback or suggestion? Click here.




ElementValue
Catalog42036
NameFLOCK 3P-62
Epoch Orbit17302
Epoch Day92.05546453
Epoch Year2020
RAAN162.0297
Inclination97.3717
Eccentricity0.0006317
Argument of Perigee215.5297
Mean Anonmoly144.5522
Mean Motion15.27838757
Decay Rate3.224E-05
L11 42036U 17008CS 20092.05546453 .00003224 00000-0 12131-3 0 9998
L22 42036 97.3717 162.0297 0006317 215.5297 144.5522 15.27838757173025

Live tracking and technical data element details for FLOCK 3P-62 (NORAD 42036). FLOCK 3P-62 can be tracked NOW for your location showing map with azimuth and elevation plus other details from your city location.

Track the satellite on the map from your city or location and see movement details for azimuth, elevation, latitude, longitude, range, height, and movement on the map or in text.







IsCatalogInMostPopularTable: catalog: 42036, numindb: 319
Update: records affected: 1



GetName: 42036 FLOCK 3P-62

Hit Count: updated at: Thu, 02 Apr 2020 04:01:00 GMT